New Ulm, MN

3:15 PM CST on December 14, 2019 (GMT -0600)
New Ulm Municipal

Weather History for KULM - October, 2019

Change the Weather History Date:

Monday, October 28, 2019

  Actual Average Record
Temperature  
Mean Temperature 29 °F -  
Max Temperature 35 °F 55 °F 77 °F (1983)
Min Temperature 23 °F 33 °F 14 °F (1967)
Degree Days  
Heating Degree Days 36    
Moisture  
Dew Point 18 °F    
Average Humidity 63    
Maximum Humidity 86    
Minimum Humidity 38    
Precipitation  
Precipitation 0.00 in - - ()
Sea Level Pressure  
Sea Level Pressure 30.11 in    
Wind  
Wind Speed 7 mph ()    
Max Wind Speed 16 mph    
Max Gust Speed 24 mph    
Visibility 10.0 miles    
Events      
Averages and records for this station are not official NWS values.
T = Trace of Precipitation, MM = Missing Value Source: Averaged Metar Reports

Daily Weather History Graph

Daily Weather History Graph

Search for Another Location

Airport or City:

Astronomy

Oct. 28, 2019 Rise Set
Actual Time 7:49 AM CDT 6:13 PM CDT
Civil Twilight 7:19 AM CDT 6:43 PM CDT
Nautical Twilight 6:45 AM CDT 7:17 PM CDT
Astronomical Twilight 6:11 AM CDT 7:50 PM CDT
Moon 8:11 AM CDT (10/28) 6:58 PM CDT (10/28)
Length of Visible Light 11h 23m
Length of Day
10h 23m
New Moon, 0% of the Moon is Illuminated
Oct 28
New Moon
Nov 4
First Quarter
Nov 12
Full
Nov 19
Last Quarter
Nov 26
New

Hourly Weather History & Observations

Time (CDT) Temp. Windchill Dew Point Humidity Pressure Visibility Wind Dir Wind Speed Gust Speed Precip Events Conditions
12:55 AM 30.2 °F 21.3 °F 19.4 °F 64% 30.13 in 10.0 mi NW 10.4 mph - N/A   Clear
1:55 AM 28.4 °F 20.4 °F 17.6 °F 64% 30.13 in 10.0 mi NW 8.1 mph - N/A   Clear
2:55 AM 26.6 °F 21.2 °F 21.2 °F 80% 30.13 in 10.0 mi West 4.6 mph - N/A   Clear
3:55 AM 24.8 °F 19.1 °F 21.2 °F 86% 30.12 in 10.0 mi West 4.6 mph - N/A   Scattered Clouds
4:55 AM 24.8 °F 17.9 °F 19.4 °F 80% 30.10 in 10.0 mi WNW 5.8 mph - N/A   Clear
5:55 AM 23.0 °F 15.8 °F 19.4 °F 86% 30.11 in 10.0 mi West 5.8 mph - N/A   Clear
6:55 AM 26.6 °F 17.5 °F 19.4 °F 74% 30.09 in 10.0 mi WNW 9.2 mph - N/A   Clear
7:55 AM 24.8 °F 17.9 °F 19.4 °F 80% 30.12 in 10.0 mi West 5.8 mph - N/A   Clear
9:55 AM 28.4 °F 18.0 °F 15.8 °F 59% 30.14 in 10.0 mi West 12.7 mph - N/A   Clear
10:55 AM 30.2 °F 21.3 °F 15.8 °F 55% 30.12 in 10.0 mi WNW 10.4 mph 16.1 mph N/A   Clear
11:55 AM 33.8 °F 24.3 °F 10.4 °F 38% 30.12 in 10.0 mi West 13.8 mph 20.7 mph N/A   Clear
12:55 PM 33.8 °F 24.8 °F 12.2 °F 41% 30.11 in 10.0 mi WNW 12.7 mph 16.1 mph N/A   Clear
1:55 PM 35.6 °F 25.9 °F 12.2 °F 38% 30.09 in 10.0 mi West 16.1 mph 24.2 mph N/A   Scattered Clouds
2:55 PM 33.8 °F 25.3 °F 14.0 °F 44% 30.08 in 10.0 mi West 11.5 mph - N/A   Mostly Cloudy
3:55 PM 33.8 °F 24.3 °F 15.8 °F 48% 30.06 in 10.0 mi WNW 13.8 mph - N/A   Scattered Clouds
4:55 PM 33.8 °F 27.0 °F 15.8 °F 48% 30.07 in 10.0 mi West 8.1 mph - N/A   Mostly Cloudy
5:55 PM 33.8 °F 28.6 °F 17.6 °F 52% 30.08 in 10.0 mi WNW 5.8 mph - N/A   Scattered Clouds
6:55 PM 32.0 °F 28.7 °F 19.4 °F 60% 30.09 in 10.0 mi West 3.5 mph - N/A   Clear
7:55 PM 30.2 °F - 21.2 °F 69% 30.10 in 10.0 mi Calm Calm - N/A   Clear
8:55 PM 30.2 °F - 21.2 °F 69% 30.09 in 10.0 mi Calm Calm - N/A   Clear
9:55 PM 28.4 °F 24.6 °F 19.4 °F 69% 30.09 in 10.0 mi WNW 3.5 mph - N/A   Clear
10:55 PM 28.4 °F - 21.2 °F 74% 30.12 in 10.0 mi Calm Calm - N/A   Clear
11:55 PM 28.4 °F 24.6 °F 21.2 °F 74% 30.14 in 10.0 mi SW 3.5 mph - N/A   Clear